Total_Precipitation_Accumulation
1.29 1.31 1.25 1.17 1.09 0.97 0.90 0.90 0.93 0.85 0.77 0.56 0.36 0.22 0.21 0.19 0.17 0.11 0.08 0.10 0.08 0.04 0.03 0.02 0.02 0.02 0.03 0.03 0.03 0.04 0.04 0.04 0.05 0.07 0.13 0.20 0.25 0.28
1.27 1.33 1.33 1.30 1.28 1.16 1.01 0.93 0.86 0.85 0.80 0.65 0.45 0.28 0.28 0.25 0.22 0.12 0.10 0.13 0.10 0.09 0.05 0.05 0.04 0.04 0.03 0.03 0.02 0.02 0.02 0.01 0.02 0.05 0.17 0.39 0.48 0.44
1.10 1.16 1.28 1.34 1.39 1.34 1.25 1.09 0.96 0.92 0.88 0.78 0.58 0.35 0.32 0.32 0.29 0.21 0.14 0.12 0.11 0.09 0.08 0.07 0.06 0.06 0.05 0.05 0.04 0.03 0.02 0.01 0.02 0.04 0.10 0.25 0.53 0.62
0.92 0.92 1.00 1.09 1.19 1.28 1.28 1.23 1.18 1.05 1.01 0.98 0.83 0.58 0.42 0.37 0.31 0.29 0.25 0.20 0.18 0.16 0.14 0.11 0.08 0.06 0.05 0.05 0.04 0.03 0.02 0.02 0.02 0.03 0.05 0.08 0.15 0.29
0.73 0.72 0.74 0.84 0.96 1.08 1.16 1.19 1.23 1.21 1.17 1.09 0.99 0.83 0.59 0.45 0.39 0.34 0.31 0.32 0.24 0.19 0.18 0.17 0.14 0.10 0.09 0.08 0.05 0.04 0.03 0.02 0.02 0.02 0.02 0.03 0.04 0.07
0.54 0.52 0.54 0.59 0.67 0.79 0.95 1.10 1.20 1.24 1.26 1.24 1.08 0.87 0.73 0.62 0.48 0.42 0.44 0.42 0.36 0.29 0.23 0.22 0.22 0.18 0.15 0.12 0.11 0.09 0.07 0.06 0.05 0.04 0.03 0.03 0.03 0.03
0.45 0.38 0.36 0.40 0.42 0.47 0.55 0.76 0.96 1.10 1.14 1.19 1.11 0.92 0.75 0.65 0.55 0.51 0.50 0.51 0.47 0.44 0.40 0.33 0.30 0.27 0.25 0.23 0.19 0.16 0.13 0.12 0.11 0.09 0.08 0.07 0.07 0.06
0.40 0.37 0.34 0.36 0.31 0.26 0.28 0.39 0.59 0.78 0.92 1.03 1.07 0.95 0.81 0.71 0.67 0.61 0.53 0.47 0.40 0.37 0.36 0.36 0.35 0.33 0.32 0.31 0.31 0.29 0.26 0.23 0.20 0.17 0.15 0.14 0.14 0.14
0.45 0.47 0.42 0.36 0.40 0.31 0.26 0.27 0.31 0.38 0.52 0.71 0.88 0.91 0.97 0.86 0.70 0.58 0.51 0.47 0.43 0.41 0.37 0.33 0.31 0.30 0.32 0.33 0.35 0.35 0.35 0.32 0.28 0.27 0.25 0.24 0.25 0.24
0.50 0.54 0.56 0.50 0.45 0.46 0.43 0.45 0.42 0.35 0.41 0.35 0.45 0.72 0.79 0.77 0.70 0.63 0.57 0.49 0.41 0.36 0.35 0.35 0.35 0.34 0.29 0.28 0.31 0.30 0.30 0.30 0.32 0.34 0.35 0.36 0.35 0.33
0.49 0.55 0.58 0.52 0.54 0.55 0.61 0.69 0.63 0.51 0.61 0.61 0.54 0.54 0.55 0.52 0.53 0.56 0.57 0.51 0.44 0.37 0.29 0.25 0.27 0.29 0.30 0.32 0.30 0.29 0.29 0.27 0.26 0.24 0.23 0.23 0.24 0.25
0.56 0.59 0.71 0.62 0.58 0.52 0.53 0.64 0.67 0.57 0.47 0.49 0.44 0.36 0.28 0.29 0.34 0.39 0.54 0.62 0.58 0.47 0.37 0.29 0.29 0.29 0.29 0.27 0.24 0.25 0.24 0.23 0.21 0.20 0.19 0.16 0.14 0.14
0.70 0.74 0.68 0.71 0.52 0.44 0.45 0.43 0.49 0.49 0.49 0.52 0.54 0.46 0.36 0.33 0.30 0.27 0.32 0.42 0.52 0.51 0.42 0.34 0.31 0.29 0.26 0.22 0.22 0.24 0.24 0.21 0.18 0.17 0.16 0.16 0.15 0.14
0.66 0.64 0.57 0.59 0.44 0.34 0.30 0.32 0.31 0.31 0.38 0.50 0.53 0.50 0.47 0.44 0.38 0.32 0.29 0.27 0.31 0.37 0.38 0.33 0.30 0.27 0.23 0.20 0.21 0.24 0.23 0.20 0.16 0.13 0.12 0.13 0.14 0.14
0.41 0.46 0.44 0.38 0.32 0.25 0.24 0.27 0.26 0.28 0.33 0.38 0.43 0.43 0.40 0.40 0.39 0.37 0.33 0.28 0.24 0.21 0.19 0.21 0.25 0.27 0.26 0.23 0.21 0.23 0.25 0.22 0.18 0.16 0.15 0.13 0.12 0.13
0.32 0.32 0.29 0.25 0.25 0.24 0.24 0.24 0.25 0.29 0.33 0.33 0.34 0.38 0.38 0.38 0.38 0.39 0.40 0.40 0.39 0.36 0.32 0.29 0.29 0.30 0.31 0.31 0.27 0.23 0.25 0.26 0.23 0.21 0.19 0.17 0.15 0.15
0.42 0.36 0.30 0.28 0.27 0.29 0.30 0.26 0.27 0.30 0.33 0.32 0.33 0.34 0.33 0.36 0.37 0.35 0.34 0.37 0.38 0.37 0.37 0.37 0.36 0.35 0.35 0.36 0.37 0.36 0.37 0.37 0.35 0.32 0.26 0.21 0.19 0.19
0.43 0.48 0.48 0.51 0.50 0.48 0.45 0.35 0.28 0.28 0.31 0.35 0.34 0.31 0.32 0.32 0.34 0.36 0.34 0.35 0.33 0.31 0.28 0.27 0.30 0.34 0.35 0.34 0.29 0.31 0.38 0.39 0.41 0.41 0.34 0.28 0.23 0.24
0.41 0.55 0.55 0.53 0.48 0.43 0.39 0.32 0.26 0.20 0.20 0.24 0.31 0.35 0.34 0.34 0.37 0.39 0.37 0.33 0.30 0.30 0.29 0.25 0.23 0.25 0.28 0.27 0.27 0.25 0.26 0.31 0.32 0.32 0.31 0.29 0.27 0.28
0.37 0.44 0.43 0.40 0.34 0.25 0.18 0.14 0.13 0.12 0.10 0.11 0.12 0.19 0.31 0.38 0.45 0.47 0.50 0.50 0.47 0.43 0.38 0.31 0.25 0.21 0.20 0.20 0.19 0.17 0.16 0.20 0.25 0.25 0.23 0.24 0.23 0.24
0.17 0.17 0.16 0.17 0.15 0.12 0.08 0.06 0.05 0.05 0.04 0.04 0.05 0.07 0.14 0.25 0.38 0.47 0.51 0.55 0.54 0.53 0.51 0.46 0.41 0.39 0.31 0.29 0.26 0.20 0.17 0.16 0.16 0.15 0.15 0.16 0.16 0.16
0.07 0.07 0.06 0.06 0.06 0.05 0.05 0.04 0.04 0.04 0.04 0.05 0.08 0.12 0.17 0.19 0.22 0.31 0.41 0.45 0.43 0.41 0.41 0.43 0.44 0.43 0.39 0.38 0.35 0.28 0.22 0.19 0.20 0.21 0.18 0.16 0.14 0.13
0.06 0.05 0.05 0.04 0.03 0.04 0.04 0.04 0.03 0.03 0.03 0.03 0.06 0.12 0.18 0.24 0.25 0.24 0.25 0.29 0.33 0.36 0.38 0.39 0.39 0.38 0.39 0.41 0.42 0.39 0.32 0.27 0.26 0.28 0.30 0.37 0.33 0.22